Simultaneous Nadir Overpasses (SNOs) Predictions

Prediction of SNOs between GOES-16 and NOAA-20 Satellite Orbit:

Table of predicted SNOs for the next 14.0 days since TLE Epoch: 8/20/2022
Index Date Time (GOES-16) GOES-16 Lat,Lon NOAA-20 Lat,Lon Distance(km) Time Diff (sec)
1 08/20/2022 06:10:39 0.04, -75.19 -0.72, -71.85 380.97 80
2 08/21/2022 18:32:36 -0.03, -75.21 -0.46, -77.17 222.69 80
3 08/22/2022 18:16:31 -0.03, -75.21 0.53, -72.63 293.69 80
4 08/24/2022 06:38:21 0.00, -75.21 0.62, -77.91 308.19 80
5 08/25/2022 06:16:57 -0.00, -75.22 -0.43, -73.39 208.45 80
6 08/26/2022 18:38:54 0.01, -75.24 -0.74, -78.71 394.19 80
7 08/27/2022 18:22:50 0.00, -75.25 0.25, -74.17 123.17 80
8 08/29/2022 06:44:38 -0.00, -75.27 0.95, -79.44 476.69 80
9 08/30/2022 06:23:15 -0.00, -75.28 -0.10, -74.92 40.98 80
10 09/01/2022 18:26:28 0.00, -75.33 -0.08, -75.70 42.86 80
11 09/02/2022 18:10:23 0.00, -75.34 0.91, -71.17 474.93 80
